TimeCDT,TemperatureF,Dew PointF,Humidity,Sea Level PressureIn,VisibilityMPH,Wind Direction,Wind SpeedMPH,Gust SpeedMPH,PrecipitationIn,Events,Conditions,WindDirDegrees,DateUTC
12:58 AM,69.3,69.3,100,30.07,10.0,North,1.2,-,N/A,,Partly Cloudy,350,2013-05-20 05:58:00
1:58 AM,68.5,68.5,100,30.05,10.0,WNW,2.3,-,N/A,,Partly Cloudy,290,2013-05-20 06:58:00
2:58 AM,68.2,68.2,100,30.02,10.0,ESE,2.3,-,N/A,,Partly Cloudy,120,2013-05-20 07:58:00
3:58 AM,66.9,66.9,100,30.01,10.0,South,2.3,-,N/A,,Clear,180,2013-05-20 08:58:00
4:58 AM,72.3,72.3,100,29.99,10.0,SSW,9.2,-,N/A,,Scattered Clouds,200,2013-05-20 09:58:00
5:58 AM,73.0,73.0,100,29.99,10.0,SSW,12.7,-,N/A,,Scattered Clouds,210,2013-05-20 10:58:00
6:58 AM,72.3,72.3,100,30.06,10.0,NE,6.9,-,N/A,,Clear,40,2013-05-20 11:58:00
7:58 AM,74.7,74.7,100,30.07,10.0,ENE,4.6,-,0.00,,Light Drizzle,60,2013-05-20 12:58:00
8:58 AM,77.7,75.9,94,30.09,10.0,SE,2.3,-,N/A,,Scattered Clouds,130,2013-05-20 13:58:00
9:58 AM,79.9,76.1,88,30.09,10.0,Variable,3.5,-,N/A,,Scattered Clouds,0,2013-05-20 14:58:00
10:58 AM,80.1,76.1,88,30.09,10.0,Variable,4.6,-,N/A,,Mostly Cloudy,0,2013-05-20 15:58:00
11:48 AM,82.4,77.0,84,30.07,10.0,SW,8.1,-,N/A,,Overcast,230,2013-05-20 16:48:00
11:53 AM,82.4,77.0,84,30.07,10.0,SW,6.9,-,N/A,,Overcast,230,2013-05-20 16:53:00
11:58 AM,82.9,78.3,86,30.08,10.0,WSW,6.9,-,N/A,,Overcast,250,2013-05-20 16:58:00
12:58 PM,82.0,76.3,83,30.07,10.0,WSW,8.1,-,N/A,,Mostly Cloudy,240,2013-05-20 17:58:00
1:58 PM,83.7,77.4,81,30.06,10.0,SW,9.2,-,N/A,,Scattered Clouds,230,2013-05-20 18:58:00
2:58 PM,82.8,77.9,85,30.04,10.0,SW,13.8,-,N/A,,Clear,230,2013-05-20 19:58:00
3:58 PM,82.0,77.0,85,30.02,10.0,SW,10.4,-,N/A,,Clear,230,2013-05-20 20:58:00
4:58 PM,81.3,77.7,89,30.01,10.0,SW,10.4,-,N/A,,Clear,230,2013-05-20 21:58:00
5:58 PM,79.2,76.6,92,30.01,10.0,WSW,6.9,-,N/A,,Clear,240,2013-05-20 22:58:00
6:58 PM,77.5,76.5,96,30.01,10.0,WSW,8.1,-,N/A,,Clear,240,2013-05-20 23:58:00
7:58 PM,75.4,75.4,100,30.01,10.0,WSW,5.8,-,N/A,,Clear,240,2013-05-21 00:58:00
8:58 PM,74.7,74.7,100,30.03,10.0,SW,3.5,-,N/A,,Clear,220,2013-05-21 01:58:00
9:58 PM,71.8,71.8,100,30.04,10.0,South,4.6,-,N/A,,Clear,190,2013-05-21 02:58:00
10:58 PM,71.2,71.2,100,30.04,10.0,South,4.6,-,N/A,,Clear,180,2013-05-21 03:58:00
11:58 PM,73.2,73.2,100,30.02,10.0,South,3.5,-,N/A,,Clear,190,2013-05-21 04:58:00